Tenerife, Spain

6:19 PM WEST on October 15, 2018 (GMT +0100)
Tenerife

Weather History for GCXO - May, 2018

Change the Weather History Date:

Wednesday, May 16, 2018

  Actual Average Record
Temperature  
Mean Temperature 57 °F -  
Max Temperature 60 °F 67 °F 91 °F (2012)
Min Temperature 54 °F 54 °F 50 °F (2007)
Degree Days  
Heating Degree Days 8    
Growing Degree Days 7 (Base 50)    
Moisture  
Dew Point 54 °F    
Average Humidity 89    
Maximum Humidity 100    
Minimum Humidity 70    
Precipitation  
Precipitation 0.00 in - - ()
Sea Level Pressure  
Sea Level Pressure 30.03 in    
Wind  
Wind Speed 23 mph ()    
Max Wind Speed 30 mph    
Max Gust Speed 39 mph    
Visibility 6.8 miles    
Events Fog , Rain    
Averages and records for this station are not official NWS values.
T = Trace of Precipitation, MM = Missing Value Source: Averaged Metar Reports

Daily Weather History Graph

Daily Weather History Graph

Search for Another Location

Airport or City:

Astronomy

May. 16, 2018 Rise Set
Actual Time 7:14 AM WEST 8:49 PM WEST
Civil Twilight 6:48 AM WEST 9:15 PM WEST
Nautical Twilight 6:17 AM WEST 9:46 PM WEST
Astronomical Twilight 5:45 AM WEST 10:18 PM WEST
Moon 8:13 AM WEST (5/16) 10:04 PM WEST (5/16)
Length of Visible Light 14h 26m
Length of Day
13h 35m
New Moon, 1% of the Moon is Illuminated
May 16
New Moon
May 22
First Quarter
May 29
Full
Jun 6
Last Quarter
Jun 13
New

Hourly Weather History & Observations

Time (WEST) Temp. Dew Point Humidity Pressure Visibility Wind Dir Wind Speed Gust Speed Precip Events Conditions
12:00 AM 55.4 °F 53.6 °F 94% 30.06 in 6.2 mi WNW 26.5 mph - N/A   Overcast
12:30 AM 57.2 °F 53.6 °F 88% 30.06 in 6.2 mi WNW 28.8 mph - N/A   Overcast
1:00 AM 56 °F 52 °F 83% 30.05 in 18 mi WNW 27.6 mph - -  
1:00 AM 55.4 °F 53.6 °F 94% 30.06 in 6.2 mi WNW 27.6 mph - N/A   Overcast
1:30 AM 55.4 °F 53.6 °F 94% 30.06 in 6.2 mi WNW 28.8 mph - N/A   Overcast
2:00 AM 55.4 °F 53.6 °F 94% 30.04 in 6.2 mi WNW 29.9 mph - N/A   Overcast
2:30 AM 57.2 °F 51.8 °F 82% 30.04 in 6.2 mi WNW 25.3 mph - N/A   Overcast
3:00 AM 57.2 °F 53.6 °F 88% 30.04 in 6.2 mi WNW 25.3 mph - N/A   Overcast
3:30 AM 55.4 °F 53.6 °F 94% 30.04 in 6.2 mi WNW 25.3 mph - N/A   Overcast
4:00 AM 56 °F 52 °F 81% 30.01 in 19 mi WNW 24.2 mph - -  
4:00 AM 57.2 °F 51.8 °F 82% 30.01 in 6.2 mi NW 23.0 mph - N/A   Overcast
4:30 AM 55.4 °F 53.6 °F 94% 30.01 in 6.2 mi WNW 25.3 mph - N/A   Overcast
5:00 AM 55.4 °F 53.6 °F 94% 30.01 in 3.7 mi NW 25.3 mph 36.8 mph N/A Rain Light Rain
5:30 AM 55.4 °F 55.4 °F 100% 30.01 in 1.4 mi WNW 24.2 mph 35.7 mph N/A Rain Light Rain
6:00 AM 55.4 °F 55.4 °F 100% 30.01 in 6.2 mi WNW 27.6 mph - N/A   Mostly Cloudy
6:30 AM 55.4 °F 55.4 °F 100% 30.01 in 5.0 mi WNW 25.3 mph 36.8 mph N/A Fog Patches of Fog
7:00 AM 55 °F 54 °F 98% 29.99 in 5 mi WNW 24.2 mph - -   Mostly Cloudy
7:00 AM 57.2 °F 55.4 °F 94% 30.01 in 5.0 mi NW 23.0 mph - N/A Fog Patches of Fog
7:30 AM 57.2 °F 55.4 °F 94% 30.01 in 5.0 mi NW 24.2 mph - N/A Fog Patches of Fog
8:00 AM 55.4 °F 55.4 °F 100% 30.01 in 5.0 mi NW 21.9 mph - N/A Fog Patches of Fog
8:30 AM 55.4 °F 55.4 °F 100% 30.01 in 5.6 mi NW 20.7 mph - N/A Fog Patches of Fog
9:00 AM 57.2 °F 57.2 °F 100% 30.01 in 6.2 mi NW 21.9 mph - N/A Fog Patches of Fog
9:30 AM 55.4 °F 55.4 °F 100% 30.04 in 6.2 mi NW 21.9 mph - N/A   Mostly Cloudy
10:00 AM 57.2 °F 55.4 °F 94% 30.04 in 5.6 mi NW 21.9 mph - N/A Fog Patches of Fog
10:30 AM 57.2 °F 55.4 °F 94% 30.04 in 5.6 mi NW 23.0 mph - N/A Fog , Rain Patches of Fog
11:00 AM 57.2 °F 57.2 °F 100% 30.04 in 6.2 mi NW 24.2 mph - N/A   Mostly Cloudy
11:30 AM 57.2 °F 55.4 °F 94% 30.04 in 6.2 mi NNW 20.7 mph 33.4 mph N/A Rain Light Rain
12:30 PM 59.0 °F 55.4 °F 88% 30.04 in 6.2 mi NW 23.0 mph 34.5 mph N/A   Mostly Cloudy
1:00 PM 58 °F 53 °F 80% 30.03 in 19 mi NW 25.3 mph - -   Mostly Cloudy
1:00 PM 59.0 °F 53.6 °F 82% 30.04 in 6.2 mi NW 24.2 mph 36.8 mph N/A   Mostly Cloudy
1:30 PM 59.0 °F 51.8 °F 77% 30.06 in 6.2 mi NW 23.0 mph - N/A   Mostly Cloudy
2:00 PM 59.0 °F 53.6 °F 82% 30.06 in 6.2 mi NW 23.0 mph - N/A   Mostly Cloudy
2:30 PM 59.0 °F 53.6 °F 82% 30.04 in 6.2 mi NW 25.3 mph - N/A   Mostly Cloudy
3:00 PM 60.8 °F 53.6 °F 77% 30.04 in 6.2 mi NW 25.3 mph 38.0 mph N/A   Mostly Cloudy
3:30 PM 60.8 °F 51.8 °F 72% 30.01 in 6.2 mi NW 25.3 mph - N/A   Mostly Cloudy
4:00 PM 60 °F 53 °F 70% 29.99 in 13 mi NW 27.6 mph - -   Mostly Cloudy
4:00 PM 60.8 °F 53.6 °F 77% 30.01 in 6.2 mi NW 27.6 mph - N/A   Mostly Cloudy
5:00 PM 59.0 °F 51.8 °F 77% 30.04 in 6.2 mi NW 23.0 mph - N/A   Mostly Cloudy
5:30 PM 60.8 °F 53.6 °F 77% 30.01 in 6.2 mi WNW 25.3 mph - N/A   Mostly Cloudy
6:00 PM 60.8 °F 51.8 °F 72% 30.01 in 6.2 mi WNW 26.5 mph - N/A   Mostly Cloudy
6:30 PM 59.0 °F 53.6 °F 82% 30.01 in 6.2 mi NW 26.5 mph - N/A   Mostly Cloudy
7:00 PM 57.2 °F 53.6 °F 88% 30.01 in 6.2 mi WNW 26.5 mph - N/A   Mostly Cloudy
8:00 PM 57.2 °F 55.4 °F 94% 30.01 in 6.2 mi NW 24.2 mph - N/A   Mostly Cloudy
8:30 PM 57.2 °F 53.6 °F 88% 30.04 in 6.2 mi WNW 26.5 mph 39.1 mph N/A   Mostly Cloudy
9:00 PM 57.2 °F 53.6 °F 88% 30.04 in 6.2 mi NW 26.5 mph - N/A   Mostly Cloudy
9:16 PM 57.2 °F 55.4 °F 94% 30.04 in 6.2 mi WNW 27.6 mph - N/A   Mostly Cloudy
9:30 PM 57.2 °F 53.6 °F 88% 30.04 in 6.2 mi WNW 27.6 mph - N/A   Mostly Cloudy
10:00 PM 57.2 °F 53.6 °F 88% 30.04 in 6.2 mi NW 24.2 mph - N/A   Mostly Cloudy
10:30 PM 57.2 °F 55.4 °F 94% 30.06 in 6.2 mi NW 25.3 mph - N/A   Mostly Cloudy
11:00 PM 57.2 °F 55.4 °F 94% 30.06 in 6.2 mi WNW 24.2 mph - N/A   Mostly Cloudy
11:30 PM 55.4 °F 53.6 °F 94% 30.06 in 6.2 mi NW 19.6 mph - N/A   Overcast